Location: Boussac
(44.2782°N, 2.3665°E)
Time: 11:53:45
(UTC+00:00)

Cosmos 2360 Rocket - Pass Details

Date: 15 May 2026
Orbit: 831 x 845 km, 71.0° (Epoch: 6 June)

Event Time Altitude Azimuth Distance (km) Brightness Sun altitude
Rises 21:45:47 0° 332° (NNW) 3,414 6.9 -20.9°
Reaches altitude 10° 21:48:14 10° 330° (NNW) 2,475 5.8 -21.1°
Maximum altitude 21:53:53 70° 248° (WSW) 899 2.3 -21.6°
Enters shadow 21:55:44 43° 180° (S) 1,173 2.5 -21.8°
